Location: Unspecified
(43.8044°N, 11.0278°E)
Time: 03:55:29
(UTC+02:00)

Cosmos 1674 - Visible Passes

Search period start: 29 April 2016 00:00
Search period end: 09 May 2016 00:00
Orbit: 501 x 527 km, 82.5° (Epoch: 28 April)

Date Brightness Start Highest point End Pass type
(mag) Time Alt. Az. Time Alt. Az. Time Alt. Az.
29 Apr 4.9 05:05:46 10° SSE 05:09:01 27° E 05:12:17 10° NNE visible
30 Apr 5.2 04:50:28 10° SE 04:53:28 22° E 04:56:28 10° NE visible
01 May 5.4 04:35:15 10° SE 04:37:55 18° E 04:40:35 10° NE visible
02 May 5.5 04:20:09 10° ESE 04:22:22 15° E 04:24:35 10° NE visible
03 May 5.7 04:05:16 10° ESE 04:06:49 12° E 04:08:23 10° ENE visible
04 May 2.8 05:22:40 10° SSW 05:26:24 57° W 05:30:10 10° N visible
05 May 2.6 05:07:00 10° SSW 05:10:46 73° W 05:14:34 10° N visible
06 May 2.6 04:51:21 10° S 04:55:08 89° ESE 04:58:56 10° N visible
07 May 2.9 04:35:54 11° S 04:39:31 71° E 04:43:17 10° NNE visible
08 May 3.2 04:20:45 14° S 04:23:53 56° E 04:27:36 10° NNE visible
